Race Results for
Davis 4th of July Criterium
Davis, CA
(Event Information)
View By:
Criterium on 07/04/2009

Note: Ranking points are NOT upgrade points. An explanation of ranking points can be found here.


Men - Pro/Cat 1/2

 Place Points NameCity, StateTime USAC #BibTeam
1225.23Rahsaan Bahati   Compton00:00.0 116625  Rock Racing
2229.97David McCook   Tampa Fl00:00.0 66627  83 Unattached
3234.72Kevin Klein   Menlo Park, CA00:00.0 47388  28 Klein Real Estate
4239.47Chad Gerlach (1 - Pro)   West Sacramento, CA00:00.0 50138  21 
5244.21Christopher Hipp (1 - Cat1)   Redwood City, CA00:00.0 16294  24 Labor Power
6248.96Dean LaBerge   Napa, CA00:00.0 67041  30 Team Specialized Racing
7Marc PRUTTON   00:00.0  41 
8258.45Logan Loader   Felton, CA00:00.0 198542  33 Team Mountain Khakis
9263.20Joel Robertson   San Leandro, CA00:00.0 220316  72 Sierra Pacific Racing
10267.95Robert Newman   Los Gatos, CA00:00.0 53327  35 Pacific State Bank Cycling Tea
11272.69Keith Hillier   Millbrae, CA00:00.0 276108  23 Davis Bike Club
12277.44Joe Iannarelli   Vacaville, CA00:00.0 195783  25 Team Clif Bar
13282.19Eric Easterling   Fresno, CA00:00.0 79101  15 Sierra Pacific Racing
14286.94Judd Van Sickle   Sacramento, CA00:00.0 127052  53 Rocknasium
15291.68John Fairbanks   Sacramento, CA00:00.0 83306  18 Safeway/bicycles Plus
16296.43Christopher Baker   Sacramento, CA00:00.0 47424  90 Echelon Velo
17301.18Robert Scheffler   Alamo, CA00:00.0 239048  65 California Polytechnic-san Lui
18305.92Max Jenkins   Citrus Heights, CA00:00.0 195652  27 Glud & Marstrand Horsens
19310.67Peter Graf (1 - Cat2)   Sacramento, CA00:00.0 218511  22 Wells Fargo Racing Team
20315.42Filip Vanacht   Los Altos, CA00:00.0 245198  54 Sugarcrm
21320.16Darin Divine   Mill Valley, CA00:00.0 97504  14 Divine Electric Norcal
22324.91Dustin Diede   Napa, CA00:00.0 206844  79 Precision Bicycles/team Precis
23329.66Paul Penn   Hayward, CA00:00.0 57836  38 Wells Fargo Team
24334.40Alton Dunnigan   Pleasant Hill, CA00:00.0 157044  75 Arete' Racing
25339.15Paul Sumner   San Anselmo, CA00:00.0 47616  50 Divine Electric Norcal
26343.90Michael Cordova   Chester, CA00:00.0 207547  11 Chico Corsa
27348.64Nathan Freed   Tahoe City, CA00:00.0 86484  84 Cyclepaths/wild Cherries Racin
28353.39Justin Laue   Austin, TX00:00.0 264982  32 Zteam Cycling
29358.14Timothy Farnham   San Francisco, CA00:00.0 198206  81 Uci Ct: Bissell Pro Cycling T
30362.88Collin Samaan   Fair Oaks, CA00:00.0 196233  45 
31367.63Michael Buckley   Reno, NV00:00.0 186698  61 Morgan Stanley/team Spine/spec
32372.38Adam Ross   Folsom, CA00:00.0 167796  44 Wells Fargo Racing Team
33377.12Stephen McCaw   Sacramento, CA00:00.0 62322  91 Armstrong & Associates / Fci C
34381.87Aaron Gallardo   Woodland Hills Ca00:00.0 160366  69 Team Helen's
35Westley GOUGH   00:00.0  71 
36391.36Thomas Pham (2 - Cat2)   Miami Beach, FL00:00.0 186946  39 Tucker Thomas Designs
37396.11Clint Rogers (3 - Cat2)   Sacramento, CA00:00.0 195220  43 David Bike Club
38400.86Taylor Kuphaldt (2 - Cat1)   Yuba City, CA00:00.0 223012  29 Davis Bike Club
39405.60Shaun Harless   San Francisco, CA00:00.0 179538  67 Above Category Racing
40410.35Eric Walle   Berkeley, CA00:00.0 186029  55 Team Clif Bar Cycling
41415.10Joshua Carling   Rancho Cordova, CA00:00.0 234584  Pacific State Bank Cycling Tea
42419.84Russell White   Lafayette, CA00:00.0 236024  56 Davis Bike Club
43424.59Neil Harrington   Los Altos Hills, CA00:00.0 247680  66 Webcor/alto Velo
44429.34Ron Castia   Livermore, CA00:00.0 144264  Infovista Cycling Team
45434.09Tyler Brandt   Vallejo, CA00:00.0 210604  Hdr P/b Lombardi Sports
46438.83Peter Nicholson   Mill Valley00:00.0 219558  36 Norcal Bike Sport Elite
47443.58Kevin Metcalfe   Pleasant Hill, CA00:00.0 47519  86 Team Specialized Racing Master
48448.33Mark Deterline   Salt Lake City, UT00:00.0 43613  13 Wells Fargo Racing Team
49453.07Chris Turner   Los Altos, CA00:00.0 253101  82 Above Category Racing
50457.82Chris Carscadden   Walnut Creek, CA00:00.0 165751  76 Hdr P/b Lombardi Sports
51462.57Michael Egan   West Sacrametno, CA00:00.0 124893  16 Sacramento Golden Wheelmen
52467.31Shawn Rosenthal   Berkeley, CA00:00.0 196247  78 Zteam
53472.06Doran Mori   Oakland, CA00:00.0 196267  34 Team Clif Bar Cycling
54476.81Tim Granshaw   Redwood City, CA00:00.0 55803  88 Sierra Pacific Racing
55481.55David Quist   Leadville, CO00:00.0 211381  671 Team Clif Bar
56486.30Gregory White   Lafayette, CA00:00.0 246669  57 Davis Bike Club
57491.05Sean McBride (4 - Cat2)   Oakland, CA00:00.0 190591  51 Norcal Elite Cycling
58495.79Yacov Spivak   Fair Oaks, CA00:00.0 241816  80 Chico Corsa Cycling Club
59500.54Zachary Wick   Davis, CA00:00.0 200743  58 Davis Bike Club
60505.29Eric Fischer (5 - Cat2)   Berkeley, CA00:00.0 246309  89 Unattached
61510.03Kevin King (6 - Cat2)   Hayward, CA00:00.0 190594  87 Wells Fargo Racing Team
62514.78Michael Foley   Moraga, CA00:00.0 11946  19 Wells Fargo Racing Team
63519.53Christopher Coble   San Francisco, CA00:00.0 220196  10 The Olympic Club
64524.27Chris Stastny   Vacaville, CA00:00.0 249743  49 Davis Bike Club
65529.02Benjamin Stern   Mequon, WI00:00.0 238365  68 Team Roaring Mouse
66533.77Rand Miller   San Francisco, CA00:00.0 182990  73 Webcor/alto Velo
67538.51Stanley Terusaki   Livermore, CA00:00.0 35241  52 Morgan Stanley/team Spine/spec
68543.26Robert Evans   Scotts Valley, CA00:00.0 72893  59 Unattached
69548.01Zack Sober (7 - Cat2)   San Ramon, CA00:00.0 220077  48 Wells Fargo Racing Team
70552.75Dylan Seguin   Boise, ID00:00.0 44296  46 Team Clif Bar Cycling
DNSJason Brown   Lodi, CA00:00.0 53115   Vos-cycles Gladiator
DNSAlden Tanaka   San Mateo, CA00:00.0 568   Velo Europa-cyfac
DNPCharles Alexander   Sacramento, CA00:00.0 206466  Davis Bike Club
DNPUmberto Baca   Los Angeles, CA00:00.0 175948  Team Helens
DNPPatrick Briggs   Oakland, CA00:00.0 4838  California Giant Berry Farms/s
DNPChristopher Carey   San Francisco, CA00:00.0 195433  
DNPBrandon Correia   Alameda, CA00:00.0 188308  12 Godspeed Courier
DNPNathaniel English   Berkeley, CA00:00.0 258309  17 Zteam
DNPJustin Fraga   San Francisco, CA00:00.0 145583  20 Webcor / Alto Velo
DNPMichael Jacques   Portola Valley, CA00:00.0 72022  26 Garrison Institutional
DNPBryan Larsen   Dana Point, CA00:00.0 195204  31 Rio Strada
DNPBrett Park   San Rafael, CA00:00.0 134639  37 Arete' Racing
DNPDavid Pouncy   Piedmont, CA00:00.0 248071  40 Berkeley Bicycle Club (bbc)
DNPJosh Snead (Cat2)   Larkspur, CA00:00.0 135947  47 Bpg/montano Velo
DNPRandy Bramblett   San Francisco, CA00:00.0 187194  60 Usa
DNPDarren Basso   Belmont, CA00:00.0 130973  62 Arete' Racing
DNPRobert Dahl   Oakland, CA00:00.0 218381  63 Metromint Cycling
DNPJenson Lee   Saratoga, CA00:00.0 212393  64 
DNPAnthony Merriett   Redwood City, CA00:00.0 61305  70 Davis Bike Club
DNPDave Kause   Sacramento, CA00:00.0 175157  77 Team Kinetic Cycles
DNPDaniel Ramsey   Los Angeles, CA00:00.0 29107  85 Uci Ct: Team Mountain Khakis
DNPVictor Becerra   San Anselmo, CA00:00.0 52809  92 Clean Currents P/b Don Beyer V

Men - Cat 1/2/3 - Master - 35-99

 Place Points NameCity, StateTime USAC #BibTeam
1300.76Gregory Anderson   Vacaville, CA00:00.0 90802  237 Morgan Stanley/team Spine/spec
2309.35Alex Holtz   Sacramento, CA00:00.0 61440  238 Emc 2/felt Bicycles
3317.94Max Mack   Sacramento, CA00:00.0 45629  235 Health Is Wealth Powered By Wh
4326.53Michael Pugh   Davis, CA00:00.0 28820  220 Davis Bike Club
5335.12Keith DeFiebre   Prunedale, CA00:00.0 9046  205 Hdr P/b Lombardi Sports.
6343.71John Fairbanks   Sacramento, CA00:00.0 83306  208 Safeway/bicycles Plus
7352.30Chad DeMasi   Davis, CA00:00.0 158049  207 Rocknasium
8360.89Stephen Janke   Davis, CA00:00.0 188217  234 Rocknasium
9369.48Jason Snovel   Sacramento, CA00:00.0 268577  229 Rocknasium
10378.07Andre Tenthorey   Granite Bay, CA00:00.0 76561  240 Sgw
11386.66Rob Cady   Elk Grove, CA00:00.0 49774  202 Zenn Racing Team
12395.25Ryan Hata   Sacramento, CA00:00.0 368  211 Team Kinetic Cycles
13403.84Scott Derdenger   Benicia, CA00:00.0 55123  239 Hdr P/b Lombardi Sports
14412.43David Del Rosso   Dublin, CA00:00.0 187432  206 Hdr P/b Lombardi Sports
15421.02Rodney Spradlin   El Dorado Hills, CA00:00.0 122266  225 Fci/armstrong Assoc.
16429.61Chris Ott   San Jose, CA00:00.0 26920  218 Zenn Racing Team
17438.20Andrew Lancashire   Elk Grove, CA00:00.0 218734  215 Zenn Racing
18446.79R Todd Marshall   Sacramento, CA00:00.0 43936  216 Armstong & Assoc./ Fci Lending
19455.38Steve Showler   Carmichael, CA00:00.0 32554  224 
20463.97Andrew Singson   Piscataway, NJ00:00.0 151533  232 Highland Park Hermes
21472.56Tim Granshaw   Redwood City, CA00:00.0 55803  236 Sierra Pacific Racing
22481.15Stephan Barsun   Davis, CA00:00.0 42612  200 Armstrong & Associates / Fci
23489.74Christopher Husing   Elk Grove, CA00:00.0 49804  212 Armstrong/fci
24498.33Russell Clays   Tracy, CA00:00.0 50248  203 Ic3
25506.92Judd Van Sickle   Sacramento, CA00:00.0 127052  227 Rocknasium
26515.51Jess Raphael   Napa, CA00:00.0 221460  222 Safeway/bicycles Plus Racing
27524.10Gary Stein   San Francisco, CA00:00.0 159974  226 Third Pillar
28532.69Eric O'Brien   Omaha, NE00:00.0 229968  233 Rocknasium
DNSGregory Pike   Salinas, CA00:00.0 158350   Vos Racing - Cycles Gladiator
DNPJason Boynton   Yuba City, CA00:00.0 4526  201 Rocknasium
DNPMarty Cunningham   Sacrament Ca00:00.0 8359  204 Armstrong Assoc/fci
DNPScott Fonseca   Fair Oaks, CA00:00.0 204715  209 Zenn Racing Team
DNPJustin Hall   El Dorado Hills, CA00:00.0 81780  210 Rocknasium
DNPDave Kause   Sacramento, CA00:00.0 175157  213 Kinetic Cycling Team
DNPSpencer Kenner   Davis, CA00:00.0 86651  214 Armstrong Assoc/fci
DNPBrian McCleary   Sacramento, CA00:00.0 109066  217 Armstrong & Associates
DNPDavid Puglia   Saratoga, CA00:00.0 180139  221 Sugarcrm
DNPAndrew Robertson   Fresno, CA00:00.0 169555  223 Csc/rubber Soul
DNPMichael Jacques   Portola Valley, CA00:00.0 72022  228 Garrison Institutional/tbs Tea
DNPVincent Gee   Sacramento, CA00:00.0 13001  230 Emc-felt
DNPTrudy Bjornsen   Dixon, CA00:00.0 180561  231 Davis Bike Club
DNPDonald Langley   Morgan Hill, CA00:00.0 20327  241 Morgan Stanley/team Spine/spec

Men - Cat 2/3

 Place Points NameCity, StateTime USAC #BibTeam
1317.87Collin Samaan   Fair Oaks, CA00:00.0 196233  375 
2320.69Nicholas Oliver   El Dorado Hills, CA00:00.0 271541  339 Rio Strada Racing
3323.51Joshua Carling   Rancho Cordova, CA00:00.0 234584  313 Pacific State Bank Cycling Tea
4326.33Judd Van Sickle   Sacramento, CA00:00.0 127052  360 Rocknasium
5329.15Darren Basso   Belmont, CA00:00.0 130973  376 Arete' Racing
6331.97Michael Cordova   Chester, CA00:00.0 207547  318 Chico Corsa
7334.79Keith Hillier   Millbrae, CA00:00.0 276108  326 Davis Bike Club
8337.61Josh Snead (1 - Cat2)   Larkspur, CA00:00.0 135947  371 Unattached
9340.42Sam Bassetti   San Geronimo, CA00:00.0 237712  306 Team Swift
10343.24Filip Vanacht   Los Altos, CA00:00.0 245198  361 Sugarcrm
11346.06James LaBerge   Napa, CA00:00.0 221376  331 Team Specialized Racing Junior
12348.88Aaron Obelleiro   Dixon, CA00:00.0 264228  999 Team Precision/ Precision Bicy
13351.70Robert Scheffler   Alamo, CA00:00.0 239048  391 California Polytechnic-san Lui
14354.52Zack Sober (2 - Cat2)   San Ramon, CA00:00.0 220077  353 Wells Fargo Racing Team
15357.34John Foster   Mountain View, CA00:00.0 43445  388 Form Fitness
16360.16Nole Studley   Oakland, CA00:00.0 251301  947 Team Roaring Mouse
17362.98Evan Bowman (3 - Cat2)   Oakland, CA00:00.0 257006  308 Team Waste Management
18365.80Zachary Wick   Davis, CA00:00.0 200743  373 Davis Bike Club
19368.62Luke Ramseth   Colfax, CA00:00.0 208152  348 Adventure's Edge
20371.44Lee Shuemake   Sonora, CA00:00.0 197770  392 Delta Velo
21374.26Karl Wurzbach   Fairfield, CA00:00.0 260329  366 Davis Bike Club
22377.08Jonathan Southam   Napa, CA00:00.0 271641  354 Kovarus/abta
23379.90Ethan Atkins   San Francisco, CA00:00.0 224998  303 Metromint Cycling
24382.72Michael Jasinski   Rocklin, CA00:00.0 269476  327 Chico Corsa
25385.53Robert Evans   Scotts Valley, CA00:00.0 72893  370 Unattached
26388.35Gregory White   Lafayette, CA00:00.0 246669  364 Davis Bike Club
27391.17Andrew Lancashire   Elk Grove, CA00:00.0 218734  332 Zenn Racing
28393.99Benjamin Dodge   San Jose, CA00:00.0 178595  322 Lgbrc-specialized
29396.81Neil Bartley   San Jose, CA00:00.0 209268  305 Berkeley Bicycle Club (bbc)
30399.63Devin Koch   Truckee, CA00:00.0 260704  948 Dolce Vita Cycling
31UNKNOWN RIDER   00:00.0  340 -------
32405.27Neil Harrington   Los Altos Hills, CA00:00.0 247680  394 Webcor/alto Velo
33408.09Kenny Strickland   San Ramon, CA00:00.0 270965  356 Infovista Cycling Team
34410.91Brian Johnston   San Francisco, CA00:00.0 237599  328 Kaiser Permanente/team Oakland
35413.73Benjamin Stern   Mequon, WI00:00.0 238365  397 Team Roaring Mouse
36416.55Michael Egan   West Sacrametno, CA00:00.0 124893  323 Sacramento Golden Wheelmen
37419.37Robert Dahl   Oakland, CA00:00.0 218381  377 Metromint Cycling
38422.19Daniel Sweet (4 - Cat2)   Davis, CA00:00.0 158439  357 Davis Bike Club
39425.01Lloyd Ranola   Oakland, CA00:00.0 198425  349 Sportgenic/squadra Ovest
40427.82Jason Snovel   Sacramento, CA00:00.0 268577  374 Rocknasium
41430.64Sean Smith   Oakland, CA00:00.0 204018  334 California Giant Berry Farms/s
42433.46Rob Cady   Elk Grove, CA00:00.0 49774  390 Zenn Racing Team
43436.28Andrew Olson (1 - Cat3)   Northfield, MN00:00.0 231333  341 Carleton College
44439.10Nathanael Christensen   Clements, CA00:00.0 239919  315 Delta Velo
45441.92Daniel Prater   Davis, CA00:00.0 28612  347 
46444.74Dennis Baker   Sacramento, CA00:00.0 255279  304 Sacramento Golden Wheelmen
47447.56Justin Hall   El Dorado Hills, CA00:00.0 81780  325 Rocknasium
48450.38Joshua Brand   Sacramento , CA00:00.0 209043  398 Unattached
49453.20Mark Walsh   Sacramento, CA00:00.0 46040  363 Berkeley Bicycle Club
50456.02Ron Castia   Livermore, CA00:00.0 144264  314 Infovista Cycling Team
51458.84Charles Pockell-Wilson   Martinez Ca00:00.0 52696  345 Morgan Stanley/team Spine/spec
52461.66Dan Adkins   Oakland, CA00:00.0 177509  300 Metromint Cycling
53464.48Brett Park   San Rafael, CA00:00.0 134639  381 Arete' Racing
54467.30Adam Ross   Folsom, CA00:00.0 167796  351 Wells Fargo Racing Team
55470.11Samuel Bolster   Camino, CA00:00.0 258704  393 Team Kinetic Cycles
56472.93Scott Butler   Columbia, MO00:00.0 106701  368 Pacific State Bank Cycling Tea
57475.75Todd Kohli   San Francisco, CA00:00.0 198414  329 Arete' Racing
58478.57Stanley Dominguez (2 - Cat3)   Sacramento, CA00:00.0 49084  385 Cynergy Cycles
59481.39Kieran Cox   Oakland, CA00:00.0 244305  320 Team Oakland
60484.21Mike Kelly   Rio Linda, CA00:00.0 138145  382 Zenn Racing Team
61487.03Frank Marrs   Atlanta, GA00:00.0 272691  335 Davis Bike Club
62489.85Eric Zumwalt   Santa Rosa, CA00:00.0 53375  367 Team Norcal Bike Sport
63492.67Charles Alexander   Sacramento, CA00:00.0 206466  301 Davis Bike Club
64495.49Bjorn Fox   Berkeley, CA00:00.0 220350  372 Above Category Racing
65498.31James Whitney   Lincoln, CA00:00.0 51073  365 Fusionsport
66501.13Joakim Vinberg   Cupertino, CA00:00.0 226014  362 Kovarus/abta
67503.95Dylan McReynolds   Berkeley, CA00:00.0 23832  336 Berkeley Bicycle Club (bbc)
68506.77yuma koishi (3 - Cat3)   Cupertino, CA00:00.0 273567  330 Sjbc\sugar Crm
69509.59John Piasta   Santa Rosa, CA00:00.0 271963  343 All Sport-team Swift
70512.41Shaun Harless   San Francisco, CA00:00.0 179538  395 Above Category Racing
71515.22Andrew Singson   Piscataway, NJ00:00.0 151533  389 Highland Park Hermes
72518.04Andrew Robertson   Fresno, CA00:00.0 169555  350 Csc/rubber Soul
73520.86Jonathan Davy   Torrance, CA00:00.0 154991  321 Ironfly
74523.68Christopher Coble   San Francisco, CA00:00.0 220196  317 The Olympic Club
75526.50Richard Steele   El Dorado Hills, CA00:00.0 58347  355 Sacramento Golden Wheelmen
76529.32Cody Kaiser   El Dorado Hills, CA00:00.0 202564  380 California Giant Strawberries/
77532.14Stephen Synhorst   Sacramento, CA00:00.0 234097  358 Sacramento Golden Wheelmen
78534.96Cody Tapley   Citrus Heights, CA00:00.0 234610  359 Davis Bike Club
79537.78Jenson Lee   Saratoga, CA00:00.0 212393  378 Wells Fargo Racing Team
80540.60David Benkoski   Menlo Park, CA00:00.0 271685  369 Team Specialized Racing Junior
81543.42Nicolas Schweizer   Sacramento, CA00:00.0 230919  352 Sgw/city Bicycle Works
DNSPeter Graf (Cat2)   Sacramento, CA00:00.0 218511   Wells Fargo Racing Team
DNSAsim Malik (Cat3)   San Jose, CA00:00.0 165925   Whole Athlete
DNSBruno Pitton   Winters, CA00:00.0 240530   Davis Bike Club
DQJoshua Hughes   Sacramento, CA00:00.0 123925  344 Victory Velo/proactive Persona
DNPJason Allen   Carmichael, CA00:00.0 202003  302 River City Racing / Language 4
DNPMatt Bokemeier   San Jose, CA00:00.0 254319  307 Sjbc/sugarcrm
DNPJason Boynton   Yuba City, CA00:00.0 4526  309 Rocknasium
DNPTyler Brandt   Vallejo, CA00:00.0 210604  310 Hdr P/b Lombardi Sports
DNPBrandon Bundy   Midwest City, OK00:00.0 254928  311 Team Beer
DNPChristopher Carey   San Francisco, CA00:00.0 195433  312 
DNPJoseph Christensen (Cat3)   Clements, CA00:00.0 240832  316 Rocket Sports Racing
DNPBrandon Correia   Alameda, CA00:00.0 188308  319 Godspeed Courier
DNPDavid Barok   West Sacramento, CA00:00.0 62053  324 Team City Sacramento
DNPEliot Logan   Palo Alto, CA00:00.0 182819  333 Webcor/alto Velo
DNPAlvaro Mosquera   Sacramento, CA00:00.0 236809  337 Berkeley Bicycle Club (bbc)
DNPJoseph Oliveri   Grass Valley, CA00:00.0 26674  338 Emc/felt Bicycles
DNPCameron Patch   Salt Lake City, UT00:00.0 256779  342 Spin Cycle Racing
DNPDavid Pouncy   Piedmont, CA00:00.0 248071  346 Berkeley Bicycle Club (bbc)
DNPScott Fonseca   Fair Oaks, CA00:00.0 204715  379 Zenn Racing Team
DNPMatthew Courtney   St. Helena, CA00:00.0 201811  383 
DNPGabriel Keck   Boise Id00:00.0 181890  384 Unattached
DNPRichard Maile   Sacramento, CA00:00.0 153697  386 Unattached
DNPMitchell Rohrer   Sacramento, CA00:00.0 30439  387 Team City Sacramento
DNPEric O'Brien   Omaha, NE00:00.0 229968  396 Rocknasium
DNPLeon Iannarelli   Vacaville, CA00:00.0 49838  940 Precision Bicycles/team Precis

Men - Cat 4

 Place Points NameCity, StateTime USAC #BibTeam
1398.52Eamon Lucas   Pacific Grove, CA00:00.0 286608  428 Vos-cycles Gladiator
2403.31Jay Abolofia   Newton, MA00:00.0 286688  401 Davis Bike Club
3408.09Richard Tabuso   Roseville, CA00:00.0 274439  445 Rio Strada Racing
4412.88Mark Fairman   San Francisco, CA00:00.0 270120  455 Metromint Cycling
5417.67Nate Byrom   Penn Valley, CA00:00.0 237491  452 Unattached
6422.45Christopher Dudley   Reno, NV00:00.0 285988  411 Nevada Cycling
7427.24Patrick Kitto   San Francisco, CA00:00.0 236583  424 Fresnoakland
8432.03Joshua Bullock   Sacramento, CA00:00.0 153414  407 Chico Corsa
9436.82Benjamin Fineman   Davis, CA00:00.0 240554  414 Davis Bike Club
10441.60Brian McLean   Los Gatos, CA00:00.0 278289  430 Sugarcrm
11446.39Tim Fehon   San Francisco, CA00:00.0 263093  412 Team Norcal Bikesport
12451.18Jeffrey Palileo   American Canyon, CA00:00.0 224717  432 Sportgenic/squadra Ovest
13455.96Michael Roecklein   Lake Forest, CA00:00.0 259341  439 Na
14460.75Michael Boehme   Windsor, CA00:00.0 252576  404 Colavita/sutterhome-norcal
15465.54AJ Snovel   Sacramento, CA00:00.0 272559  443 
16470.32Nick Kinney   Windsor, CA00:00.0 255460  423 All Sport-team Swift
17475.11Isaiah Rapko   Berkeley, CA00:00.0 247899  453 Above Category
18479.90Bryan Warhold   Sacramento, CA00:00.0 148346  447 Davis Bike Club Racing Team
19484.69Alexander Gee   Danville, CA00:00.0 219922  418 Tieni Duro Jr. Cycling
20489.47Michael Claudio   West Sacramento, CA00:00.0 248052  409 Davis Bike Club
21494.26David Carlson   Sacramento, CA00:00.0 286490  408 Davis Bike Club
22499.05Denin Sahovic   Sunnyvale, CA00:00.0 271126  440 Sugarcrm
23503.83Mark Hockridge   Granite Bay, CA00:00.0 269690  420 Davis Bike Club
24508.62Kevin Park   Sebastopol, CA00:00.0 292843  433 Organicathlete
25513.41Jason Arinno   Elk Grove, CA00:00.0 260928  402 Davis Bike Club
26518.20Jared Prolo   San Francisco, CA00:00.0 204463  436 Cycling Systems
27522.98Eric Struble   Nevada City, CA00:00.0 220864  444 Sert/show-air
28527.77Lorenzo Feher   Sacramento, CA00:00.0 286353  456 Unattached
29532.56Alexander Yermolovich   Santa Clara, CA00:00.0 220894  449 Uci Cycling
30537.34Bret Roberts   San Francisco, CA00:00.0 271061  437 Sugarcrm
31542.13Eric Peterson   Sacramento, CA00:00.0 165593  434 Eric Peterson
32546.92Ian McPherson   Davis, CA00:00.0 243655  431 Davis Bike Club
33551.70Musa Zaid   San Francisco , CA00:00.0 204256  450 University Of California - Dav
34556.49Anthony Rodriguez   Davis, CA00:00.0 276148  438 Davis Bike Club
35561.28Allen Brumm   Foster City, CA00:00.0 195431  405 Webcor/alto Velo
36566.07matthew koenig   Sonora, CA00:00.0 212479  425 Golden Chain Cyclists
37570.85Matthew Lewis   Washington, DC00:00.0 255471  427 
38575.64Benjamin Bryant   Santa Rosa, CA00:00.0 247533  406 Chico Corsa
39580.43Ryan Price   Santa Rosa, CA00:00.0 267121  435 Na
40585.21German Villa   San Lorenzo, CA00:00.0 224232  451 Berkeley Bicycle Club (bbc)
41590.00David Freelove   Sacramento, CA00:00.0 279923  416 Sacramento Golden Wheelmen
DNSRob Bishop   Chico00:00.0 230714   Chico Corsa
DNSStephen Grimes   Sacramento, CA00:00.0 261152   Davis Bike Club
DNSSteve Jones   San Jose, CA00:00.0 272546   Webcor/alto Velo
DNSThomas Luttrell   San Francisco, CA00:00.0 235966   Taleo
DNSAaron Schelegle   Philadelphia, PA00:00.0 282258   
DNSsean wayman   San Jose, CA00:00.0 268350   Team Sugarcrm
DNPSaeed Abedi   Mountain View, CA00:00.0 172270  400 Webcor/ Alto Velo
DNPChris Dawson   Sacramento, CA00:00.0 224241  410 River City Racing
DNPRod Fernandez   Dixon, CA00:00.0 265576  413 Davis Bike Club
DNPMark Fiori   Folsom, CA00:00.0 112253  415 Davis Bike Club
DNPRyan Gadow   Dublin, CA00:00.0 271417  417 Tieni Duro
DNPKayden Kelly   Auburn, CA00:00.0 101369  422 Bicycle Emporium
DNPGento Kusano   Cupertino, CA00:00.0 272300  426 Sjbc/sugarcrm
DNPDarin Salk   Davis, CA00:00.0 272631  441 Davis Bike Club
DNPNicholas Walsh   00:00.0 288278  446 Cal Aggie
DNPStephen Wassather   Santa Cruz, CA00:00.0 269058  454 Rio Strada Racing

Men - Cat 4 - Master - 35-99

 Place Points NameCity, StateTime USAC #BibTeam
1404.66Mark Andersen   San Francisco, CA00:00.0 290814  601 Third Pillar
2408.78Steve Ball   Napa, CA00:00.0 59338  602 Eagle Racing Team
3412.90Eric Cinnamon   Rohnert Park, CA00:00.0 273013  608 Colavita-sutter Home Norcal
4417.02Luiggi Zuniga   Walnut Creek, CA00:00.0 281715  652 Team Kinetic
5421.13Chris Dawson   Sacramento, CA00:00.0 224241  610 River City Racing
6425.25Kayden Kelly   Auburn, CA00:00.0 101369  621 Bicycle Emporium
7429.37Richard Tabuso   Roseville, CA00:00.0 274439  648 Rio Strada Racing
8433.49Rod Fernandez   Dixon, CA00:00.0 265576  613 Davis Bike Club
9437.61Greg Chapla   Davis, CA00:00.0 282712  607 Team Donate Life
10441.73Michael Boehme   Windsor, CA00:00.0 252576  605 Colavita/sutterhome-norcal
11445.85Timothy Roberts   Dixon, CA00:00.0 30120  641 Daviss Bike Club
12449.97Mark Fiori   Folsom, CA00:00.0 112253  614 Davis Bike Club
13454.08Jeffrey Griffo   Homewood, CA00:00.0 180137  651 Unattached
14458.20Brian McLean   Los Gatos, CA00:00.0 278289  626 Sugarcrm
15462.32Gregg Lehman   Vacaville, CA00:00.0 250959  624 Precision Bicycles / Team Prec
16466.44Derek Novaes   West Sacramento, CA00:00.0 274484  631 Rio Strada Racing
17470.56Rob Robinson   Castro Valley, CA00:00.0 271386  642 Infovista Cycling Team
18474.68Mark Hockridge   Granite Bay, CA00:00.0 269690  618 Davis Bike Club
19478.80Brian Pantiga   Folsom, CA00:00.0 61633  633 Bicycle Planet
20482.91Sean Odom   Carmichael, CA00:00.0 223061  632 Rio Strada Racing
21487.03Rick Lawton   Pleasanton, CA00:00.0 141309  623 Wells Fargo Racing Team
22491.15Phillip Heiman   Penngrove, CA00:00.0 204100  617 Colavita/sutterhome-norcal
23495.27Paul Mitchell   Sacramento, CA00:00.0 220645  628 Cycling-training.com
24499.39Steven Kirby   Santa Rosa, CA00:00.0 271079  622 Colavita/sutterhome-norcal
25503.51Denin Sahovic   Sunnyvale, CA00:00.0 271126  645 Sugarcrm
26507.63Steve Stewart   Los Gatos, CA00:00.0 34158  647 Sugarcrm
27511.75Ernie Perreira   Sebastopol, CA00:00.0 27775  634 Colavita/sutterhome - Norcal
28515.86Gordon Richardson   Sacramento, CA00:00.0 198509  640 
29519.98Darin Salk   Davis, CA00:00.0 272631  646 Davis Bike Club
30524.10Joseph Clifford   Roseville, CA00:00.0 232661  609 Taleo Racing
31528.22Brian Agnell   Sacramento, CA00:00.0 180563  600 Rio Strada Racing
32532.34Francis Goldsberry   Sacramento, CA00:00.0 132927  616 Sacramento Golden Wheelmen
33536.46Frank Lunceford Sr   El Dorado Hills, CA00:00.0 273343  625 Bicycle Planet
34540.58Rich Rozzi   Hollywood Ca00:00.0 230031  643 Colavita/sutterhome-norcal
35544.69Aaron Phillips   Brentwood, CA00:00.0 273263  636 Cycling Systems
36UNKNOWN RIDER   00:00.0  ??? -------
37552.93Allen Brumm   Foster City, CA00:00.0 195431  606 Webcor/alto Velo
38557.05German Villa   San Lorenzo, CA00:00.0 224232  649 Berkeley Bicycle Club (bbc)
39561.17Jonathan Racine   San Jose, CA00:00.0 200129  639 Sjbc/sugarcrm
40565.29Michael Saba   Oakland, CA00:00.0 285459  644 Taleo Racing
41569.41James Elder   Carmaichael, CA00:00.0 271765  612 Rio Strada Racing
42573.53Scott Morrison   Fairfield, CA00:00.0 234970  629 Precision Bicycles/team Precis
43577.64Allen Jackson   Sonora, CA00:00.0 260263  619 Stanislaus/merlock Velo
44581.76Mark Nakamura   Pacifica, CA00:00.0 179927  630 Kaiser Permanente/team Oakland
45585.88Bob Ebe   Lafayette, CA00:00.0 229180  611 Taleo Racing
46Manuel CALERO   00:00.0  653 
DNSRob Bishop   Chico00:00.0 230714   Chico Corsa
DNSErnie Perreira   Sebastopol, CA00:00.0 27775   Colavita/sutterhome - Norcal
DNSBrian Priddin   El Dorado, CA00:00.0 178247   Na
DNSsean wayman   San Jose, CA00:00.0 268350   Team Sugarcrm
DNSMichael Jacques   Portola Valley, CA00:00.0 72022   Garrison Institutional
DNPBob Blyth   Davis, CA00:00.0 266326  604 Davis Bike Club
DNPDavid Freelove   Sacramento, CA00:00.0 279923  615 Sacramento Golden Wheelmen
DNPNeil Michel   Davis, CA00:00.0 201274  627 Davis Bike Club
DNPJonathan Quist   Hayward, CA00:00.0 219472  638 Vsrt/livermore Cyclery

Men - Cat 5

 Place Points NameCity, StateTime USAC #BibTeam
1Donald BECK   00:00.0  504 
2495.82Brandon Meadows   Sacramento, CA00:00.0 250736  533 
3498.18Chris Horton   Sacramento, CA00:00.0 280611  522 
4500.53Joseph Staron   Sacramento, CA00:00.0 132859  543 
5502.89Douglas Rowland   Davis, CA00:00.0 295966  508 Davis Bike Club
6David MCCORMCK   00:00.0  532 
7507.60Glenn Drummond   Walnut Creek, CA00:00.0 274369  512 
8509.95Ryan Miesbauer   West Sacramento, CA00:00.0 288945  534 Bicycle Planet
9Steve JACKURA   00:00.0  523 
10514.66Jason Ziegenhirt   Grass Valley, CA00:00.0 284690  550 Team Chico
11517.01Ryan Drobek   Sacramento, CA00:00.0 289249  511 Team Becher+
12519.37Michael Broz   Sacramento, CA00:00.0 41833  506 Davis Bike Club
13521.72Ryan Odell   Sacramento, CA00:00.0 288200  536 
14Aaron MARCHAND   00:00.0  530 
15526.43Joaquin Feliciano   Davis, CA00:00.0 271419  514 Davis Bike Club
16528.79Raymond Martinez   Sacramento, CA00:00.0 290050  531 Team Precision
17531.14Chris Hopkins   Sacramento, CA00:00.0 280762  521 
18533.49Jason Berens   Vacaville, CA00:00.0 296265  505 None
19535.85Jeffrey Weaver   Sacramento, CA00:00.0 290926  547 Davis Bike Club
20538.20Robby Liebherr   Reno, NV00:00.0 237449  526 
21540.56Ryan Malm   Sacramento, CA00:00.0 296229  528 Davis Bike Club
22542.91Ryan Oakes   Chico, CA00:00.0 258824  535 Bicycle Planet
23Ruben VERA   00:00.0  545 
24547.62Benjamin Barry   Arcata, CA00:00.0 289212  503 Becher+
25549.98Mark Triebwasser   Lincoln, CA00:00.0 111975  544 Ventana Mountain Bikes
26Lance LOVEDAY   00:00.0  527 
27Christopher WESTPHAL   00:00.0  549 
28557.04Jeff Sawyer   Rocklin, CA00:00.0 220240  541 Hammer Nutrition
29559.39Anthony Ferretti   Oroville, CA00:00.0 283185  515 Chico Corsa
30561.75Reed Azevedo   Manteca, CA00:00.0 281782  502 
31564.10Fred Haines   Sacramento, CA00:00.0 249078  518 
32566.46Eddie Sahyoun   Rocklin, CA00:00.0 291352  540 
33568.81Glenn Cutler   Vacaville, CA00:00.0 279944  510 Precision
34571.16Anthony ODell   Orangevale, CA00:00.0 287267  537 Bicycle Planet
35Oliver WEISS   00:00.0  548 
36575.87Derek Pell   Davis, CA00:00.0 282215  539 Victory Velo
37Randall GLAESER   00:00.0  516 
38580.58Patrick Gordon   Vacaville, CA00:00.0 290498  517 Team Precision
39582.94Jacob Otsuka   Walnut Creek, CA00:00.0 211452  538 Stix & Stones
40585.29Jonathan Clay   Davis, CA00:00.0 252989  507 
41587.65Christopher Finnegan   San Luis Obispo, CA00:00.0 292272  509 Davis Bike Club
42590.00Josh Sharp   Elverta, CA00:00.0 296453  542 
DNSJohn Collins   Folsom, CA00:00.0 231774   Team Revolutions
DNSJames Cotta   Lodi, CA00:00.0 282175   N/a
DNSAlex DISETH   00:00.0   
DNSAlexander Kizis   Reno, NV00:00.0 273691   Atlantis
DNSDean KLOTZ   00:00.0   
DNSJames Maltbie   Brentwood , CA00:00.0 271086   Bikes 4 Life
DNPAaron ABRAMS   00:00.0  500 
DNPAlex Albrecht   Yuba City, CA00:00.0 298024  501 Chico Corsa
DNPPatrick Dyer   Davis, CA00:00.0 10319  513 
DNPGreg HINGE   00:00.0  519 
DNPLee J HINGE   00:00.0  520 
DNPScott Waters   Reno, NV00:00.0 298411  546 

Men - Master - MR - 45-99

 Place Points NameCity, StateTime USAC #BibTeam
1352.64Richard Juarez   Mill Valley, CA00:00.0 71186  909 Vos-cycles Gladiator
2358.33Michael Pugh   Davis, CA00:00.0 28820  928 Davis Bike Club
3364.02Mike Gadow   Dublin, CA00:00.0 12619  906 Tieni Duro
4369.70Andrew Nevitt   Saratoga, CA00:00.0 47463  923 Sjbc/sugarcrm
5375.39Michael O'Rourke   Auburn, CA00:00.0 204496  925 Victory Velo/proactive
6381.08Kevin Metcalfe   Pleasant Hill, CA00:00.0 47519  944 Team Specialized Racing Master
7386.77Jonathan Laine   Truckee, CA00:00.0 256153  946 Safeway/bicycles Plus Racing
8392.46James Mansoor   Davis, CA00:00.0 69845  942 Pacific Coast Cycling Club
9398.15Thomas Coulter   Rocklin, CA00:00.0 74102  904 Morgan Stanley/team Spine/spec
10403.83John O'Neill   San Mateo, CA00:00.0 52722  924 Clover
11409.52Donald Langley   Morgan Hill, CA00:00.0 20327  915 Morgan Stanley/team Spine/spec
12415.21Brian McCleary   Sacramento, CA00:00.0 109066  920 Armstrong & Associates
13420.90Benjamin Swann (1 - Cat2)   Sacramento, CA00:00.0 34735  948 Unattached
14426.59Marty Cunningham   Sacrament Ca00:00.0 8359  905 Armstrong Assoc/fci
15432.28Christopher Bowlus   Davis, CA00:00.0 244782  900 Davis Bike Club
16437.96Christopher Kemp   West Sacramento, CA00:00.0 18867  912 Team City
17443.65Christopher Chong-Tenn   Corona, NY00:00.0 47473  901 Watchung Wheelmen
18449.34John Steggall   Davis, CA00:00.0 135891  931 Davis Bike Club
19455.03Russell Clays   Tracy, CA00:00.0 50248  902 Ic3
20460.72Jess Raphael   Napa, CA00:00.0 221460  929 Safeway/bicycles Plus Racing
21466.40Shawn Miller   Davis, CA00:00.0 24477  921 Davis Bike Club
22472.09Fred Schnaars   Davis, CA00:00.0 65032  930 Davis Bike Club
23477.78Andrew Posselt   Mill Valley, CA00:00.0 216827  927 Active Athlete/squadra Ovest
24483.47Darin Salk   Davis, CA00:00.0 272631  941 Davis Bike Club
25489.16Douglas Gonda   Truckee, CA00:00.0 13594  907 Reno Wheelmen
26494.85Joseph Clifford   Roseville, CA00:00.0 232661  903 Taleo Racing
27500.53R Todd Marshall   Sacramento, CA00:00.0 43936  919 Armstong & Assoc./ Fci Lending
28506.22James Morgan   Oakland, CA00:00.0 208555  922 Webcor/alto Velo
29511.91John Bellantoni   San Jose, CA00:00.0 46441  947 Webcor/alto Velo
30517.60Spencer Kenner   Davis, CA00:00.0 86651  913 Armstrong Assoc/fci
31523.29Stanley Dominguez (1 - Cat3)   Sacramento, CA00:00.0 49084  939 Cynergy Cycling
32528.98Brian Hitchman   Folsom, CA00:00.0 48419  908 Rio Strada Racing
33534.66Norman Kreiss   Orinda, CA00:00.0 127410  914 Morgan Stanley/specialized
34540.35Steve Loebach   Orangevale, CA00:00.0 254066  916 Tuesday Velo
35546.04Wayne Cottrell   San Clemente, CA00:00.0 48613  950 Ogden One
36551.73Michael Saba   Oakland, CA00:00.0 285459  943 Taleo Racing
37557.42Alan Rowland   Davis, CA00:00.0 56017  945 Rocknasium
38563.10Steve Stewart   Los Gatos, CA00:00.0 34158  932 Sugarcrm
39568.79Atac Tuli   Davis, CA00:00.0 277938  934 Davis Bike Club
DNSThomas Kellner   Sacramento, CA00:00.0 195574   Tuesday Velo/team Voler
DNSThomas Luttrell   San Francisco, CA00:00.0 235966   Taleo
DNSGregory Pike   Salinas, CA00:00.0 158350   Vos Racing - Cycles Gladiator
DNPHitoshi KAWAGUCHI   00:00.0  910 
DNPRichard Maile   Sacramento, CA00:00.0 153697  918 Sacramento Cx
DNPStanley Terusaki   Livermore, CA00:00.0 35241  933 Morgan Stanley/team Spine/spec
DNPBenjamin Weekes   Oakland, CA00:00.0 109383  935 Na
DNPVincent Gee   Sacramento, CA00:00.0 13001  938 
DNPLeon Iannarelli   Vacaville, CA00:00.0 49838  940 Precision Bicycles/team Precis
DNPMark XANDRINE SNEED   00:00.0  936 Unattached

Men - Master - MR - 55-99

 Place Points NameCity, StateTime USAC #BibTeam
1429.65Brian Fessenden   Orinda, CA00:00.0 54692  556 Morgan Stanley/team Spine/spec
2438.58Dana Farmer   Gold River, CA00:00.0 150815  555 Vos-cycles Gladiator
3447.52Mac Carey   Pleasant Hill, CA00:00.0 249301  553 Taleo Racing
4456.45Mark Rodamaker   Los Altos, CA00:00.0 30269  563 Webcor/alto Velo
5465.39John Diemont   Richmond, CA00:00.0 71231  554 Alto Velo/webcor
6474.32Ernest Gallardo Sr   Soledad Ca.00:00.0 12682  557 Vos-cycles Gladiator
7483.26Robert Jimenez   Sacramento, CA00:00.0 53192  559 
8492.19David Stockwell   San Jose, CA00:00.0 53052  564 Sjbc/sugarcrm
9501.13Lawrence Broberg   Felton, CA00:00.0 4905  552 Team Bicycle Trip
10510.06Raphael Gomez   Pasadena, CA00:00.0 3793  567 Cycles Veloce
11519.00Victor Becerra   San Anselmo, CA00:00.0 52809  569 Clean Currents P/b Don Beyer V
12527.93David Puglia   Saratoga, CA00:00.0 180139  561 Sugarcrm
13536.87Mark Waters (1 - Cat4)   Folsom, CA00:00.0 47102  565 Acido Lattico
14545.80Manuel Borges   Vacavaille, CA00:00.0 254360  551 Vos-cycles Gladiator
15554.74Vicente Gomez   Pasadena, CA00:00.0 3794  566 Team Simple Green
16563.67Keith Ritter   Redding, CA00:00.0 286668  562 Redding Velo
18Greg NICHOLL   00:00.0  560 
DNSGary German (Cat5)   Redding, CA00:00.0 13107  558 Redding Velo
DNSGuillermo HERRERA   00:00.0   
DNPStuart Humpert   Napa, CA00:00.0 197375  949 E.c.c.

Men - Junior - JR - 10-14

 Place Points NameCity, StateTime USAC #BibTeam
1488.74Dylan Drummond   Walnut Creek, CA00:00.0 265912  718 Tieni Duro
2496.25Andrew Biscardi   San Jose, CA00:00.0 280347  715 Sjbc/sugarcrm
3503.75Reese Levine   Orinda, CA00:00.0 263998  723 Tieni Duro
4511.26Phillip Kinney   Windsor, CA00:00.0 288036  722 
5518.77Karch Miller   El Macero, CA00:00.0 272125  724 
6526.27Robbie Farrens   Stockton, CA00:00.0 289433  719 Rocket Sports - Trek
7533.78Christian Villasana   San Francisco, CA00:00.0 229257  727 All Sport Team Swift
8541.29Jonathan Christensen   Clements, CA00:00.0 250315  717 Rocket Sports - Trek
9548.79Spencer Salk   Davis, CA00:00.0 292833  725 Davis Bike Club
10556.30Troy Strickland   San Ramon00:00.0 279824  726 Na
11Kyle BLYTH   00:00.0  716 
12Joshua KELSEY   00:00.0  728 
DNPMark Fiori   Folsom, CA00:00.0 112253  720 Davis Bike Club
DNPHitoshi KAWAGUCHI   00:00.0  721 
DNPMatt KESSELRING   00:00.0  729 Revolutions-edh
DNFMatt GRABERT   00:00.0  730 

Men - Junior - JR - 15-18

 Place Points NameCity, StateTime USAC #BibTeam
1336.55James LaBerge   Napa, CA00:00.0 221376  864 Team Specialized Racing Junior
2343.84Peter Taylor   Walnut Creek, CA00:00.0 219859  872 Team Specialized Racing
3351.12Zachary Wick   Davis, CA00:00.0 200743  873 Davis Bike Club
4358.41Ryan Gadow   Dublin, CA00:00.0 271417  856 Tieni Duro
5365.70Eamon Lucas   Pacific Grove, CA00:00.0 286608  865 Vos-cycles Gladiator
6372.98Anthony Ferretti   Oroville, CA00:00.0 283185  855 Chico Corsa
7380.27Kenny Strickland   San Ramon, CA00:00.0 270965  870 Infovista Cycling Team
8387.56Samuel Bolster   Camino, CA00:00.0 258704  850 Team Kinetic Cycles
9394.84Joseph Christensen   Clements, CA00:00.0 240832  853 Rocket Sports Racing
10402.13yuma koishi   Cupertino, CA00:00.0 273567  862 Sjbc\sugar Crm
11409.42AJ Snovel   Sacramento, CA00:00.0 272559  869 
12416.71Johnny Mullane   Watsonville, CA00:00.0 281204  866 
13Garrett HANKINS   00:00.0  858 
14431.28Nick Kinney   Windsor, CA00:00.0 255460  861 All Sport-team Swift
15438.57David Benkoski   Menlo Park, CA00:00.0 271685  876 Team Specialized Racing Junior
16445.85Bjorn Fox   Berkeley, CA00:00.0 220350  881 Above Category Racing
17453.14Gento Kusano   Cupertino, CA00:00.0 272300  863 Sjbc/sugarcrm
18460.43Cody Tapley   Citrus Heights, CA00:00.0 234610  871 Davis Bike Club
19467.71John Piasta   Santa Rosa, CA00:00.0 271963  868 All Sport-team Swift
20475.00Alexander Gee   Danville, CA00:00.0 219922  857 Tieni Duro Jr. Cycling
21482.29Tyler Hanson   Orinda, CA00:00.0 257206  859 Tieni Duro
22489.57Jeffrey Buscheck   Pleasanton, CA00:00.0 283386  852 
23496.86Trevor Larsen   Moraga, CA00:00.0 256917  879 Tieni Duro Junior Cycling Team
24504.15Dylan Drummond   Walnut Creek, CA00:00.0 265912  854 Tieni Duro
25Andrew BISIANI   00:00.0  882 
26518.72Andrew McIntire   Fremont, CA00:00.0 247811  880 Sjbc/sugarcrm
27Phillip KINNEY   00:00.0  875 
28533.30Ellis Anderson   Moraga, CA00:00.0 274504  878 Tieni Duro Junior Cycling Team
29Aaron HILLS   00:00.0  874 Davis Bike Club
30Maximilian BURKHARDT   00:00.0  851 
31555.16Christian Villasana   San Francisco, CA00:00.0 229257  877 Allsport-team Swift
32Connor KELLY   00:00.0  860 
DNPRyan Oakes   Chico, CA00:00.0 258824  867 Bicycle Planet

Women - Cat 1/2/3

 Place Points NameCity, StateTime USAC #BibTeam
1368.72Starla Teddergreen   Portland, OR00:00.0 202033  154 Sugarcrm
2373.74Carol Irving   Woodland, CA00:00.0 17419  129 Touchstone Climbing
3378.77Maria Lechuga   Los Angeles, CA00:00.0 73074  132 
4Rushlee BUCHANAN   00:00.0  145 Team Tibco
5Rachel NEYLAN   00:00.0  153 Proman
6393.83Marley Smith   Roseville, CA00:00.0 276961  152 Health Is Wealth Powered By Wh
7398.86Charlotte Hart   Merced, CA00:00.0 237583  156 Vanderkitten Racing
8403.88Amy Chandos   Flagstaff, AZ00:00.0 256409  139 Davis Bike Club
9408.90Karla Kingsley (1 - Cat1)   Kensington, CA00:00.0 219191  131 Sugarcrm
10413.93Mary Elizabeth Maroon   Sacramento, CA00:00.0 219555  144 Vanderkitten Racing
11418.95Lindsay Myers   Loma Linda, CA00:00.0 272063  149 Unattached
12423.97Yukie Nakamura   Los Altos, CA00:00.0 179928  135 Metromint Cycling
13Elisabeth WILLIAMS   00:00.0  146 Vanderkiten
14434.02Kelly McDonald   Davis, CA00:00.0 202178  150 Touchstone Climbing
15439.04Lauren Hecht   Mountain View, CA00:00.0 261693  147 Unattached
16444.06Alison Rosenthal (2 - Cat1)   Palo Alto, CA00:00.0 199109  160 Team Tibco
17449.09Jane Robertson   Davis, CA00:00.0 218607  151 Metromint Cycling
18454.11Amanda Seigle   Citrus Heights, CA00:00.0 203755  136 Metromint Cycling
19459.13Kimberly White   Grand Junction, CO00:00.0 209678  137 Dolce Vita Cycling
20464.15Katy Keenan   Golden, CO00:00.0 273038  130 Stanford Cycling
21469.18Heather Nielson   Seattle, WA00:00.0 237346  158 Colavita Racing
22474.20Brianna Hand   Oakland, CA00:00.0 218318  126 Metromint
23479.22Jennifer Zierke   Millbrae, CA00:00.0 275670  138 Colavita/sutter Home Northern
24484.25Kimberly Fong (1 - Cat2)   Berkeley, CA00:00.0 238713  124 Sugarcrm
25489.27Anny Henry   Mountain View, CA00:00.0 238246  127 Metromint
26494.29Emily Kachorek   Sacramento, CA00:00.0 167636  159 Unattached
27499.31Rae Brownsberger   San Francisco, CA00:00.0 256152  148 Webcor/alto Velo
28504.34Annie Malouin   Sacramento, CA00:00.0 188292  134 Tri-state Velo/amorosso
29509.36Joanna Bechtel   Oakland, CA00:00.0 272856  141 Hopkins Honda/code 3 Racing
30514.38Lauraleen Fenech   San Francisco, CA00:00.0 224272  123 Bici Sport
31519.41Trudy Bjornsen   Dixon, CA00:00.0 180561  121 Davis Bike Club
32524.43Heather Pryor   Sacramento, CA00:00.0 289752  143 Unattached
33529.45Hanan Alves-Hyde   Albany, CA00:00.0 234966  161 Proman Hit Squad
34534.47Vanessa Drigo   Charlotte, NC00:00.0 257356  142 Hopkins Honda/code 3 Racing
35539.50Josephine Morgan   Oakland, CA00:00.0 242553  155 Sugarcrm
DNPApril Hamlin   El Dorado Hills, CA00:00.0 266244  157 Team Integrate/ffbc Powered By
DNFElis Bradshaw   Oakland, CA00:00.0 208125  122 Metromint Cycling
DNFAnne Fulton   Palo Alto, CA00:00.0 275624  125 Webcor/alto Velo Bridge Team P
DNFJerika Hutchinson   Mount Shasta, CA00:00.0 219674  128 
DNFGina Lowe   Redding, CA00:00.0 207849  133 Owens Healthcare
DNFKarena Shannon   Castro Valley, CA00:00.0 266333  140 Hopkins Honda/code 3 Racing

Women - Cat 3

 Place Points NameCity, StateTime USAC #BibTeam
1453.81Ruth Winder   Lafayette, CA00:00.0 273081  813 Proman Hit Squad
2461.42Anne Fulton   Palo Alto, CA00:00.0 275624  802 Webcor/alto Velo Bridge Team P
3469.04Heather Nielson   Seattle, WA00:00.0 237346  806 Colavita/sutter Home Northern
4476.65Karena Shannon   Castro Valley, CA00:00.0 266333  814 Hopkins Honda/code 3 Racing
5484.27Marissa Axell   El Cerrito, CA00:00.0 269569  800 Team Roaring Mouse
6491.88Kim Ladd   Palo Alto, CA00:00.0 250460  803 Code 3 Racing
7499.50Gina Lowe   Redding, CA00:00.0 207849  804 Owens Healthcare
8507.11Birgit Cory   San Francisco, CA00:00.0 224694  801 Crc/poggio
9514.73Josephine Morgan   Oakland, CA00:00.0 242553  805 Sugarcrm
10522.34April Hamlin   El Dorado Hills, CA00:00.0 266244  812 Team Integrate/ffbc Powered By
11529.96Joanna Bechtel   Oakland, CA00:00.0 272856  815 Hopkins Honda/code 3 Racing
12537.57Sarah Kayfetz   San Francisco, CA00:00.0 104310  811 Dolce Vita Cycling
13545.19Jennifer Zierke   Millbrae, CA00:00.0 275670  809 Colavita/sutter Home Northern
14552.80Martha Bellisle   Truckee, CA00:00.0 293090  810 Team NorCal Bike Sport
15560.42Christina Yglesias   Cupertino, CA00:00.0 264750  808 Proman Hit Squad
DNSAllison Oliver   Carnelian Bay, CA00:00.0 230786   Davis Bike Club
DNFJillian Kollman   Elk Grove, CA00:00.0 258243  816 Www.teammadcat.com

Women - Cat 4

 Place Points NameCity, StateTime USAC #BibTeam
1503.21Margaret Winder   Lafayette, CA00:00.0 237600  575 Metromint Cycling
2509.88Ann Stuart   Sacramento, CA00:00.0 250365  571 Team Integrate/ffbc Powered By
3Leslie CREED   00:00.0  563 
4523.22Mary Glenn Carrasco   Foster City, CA00:00.0 266378  562 Team Integrate/ Ffbc Powered B
5529.89Danielle Griffo   Homewood, CA00:00.0 182948  573 Pelaton
6536.56Cheryl Shwe   San Francisco, CA00:00.0 271152  570 Zteam
7543.23Joy Palileo   American Canyon, CA00:00.0 255792  568 
8Stephane DAMERAL   00:00.0  572 
9556.57Katherine Pollard   Los Angles, CA00:00.0 256535  569 Www.teammadcat.com
10563.24Cynthia Moore   Roseville, CA00:00.0 24891  567 Rio Strada Racing
11569.91kameo Campisi   Vacaville, CA00:00.0 273109  574 Precision Bicycles/team Precis
12576.58Cortney Burns   Glen Ellen, CA00:00.0 291814  576 Unattached
13583.25Brittany Growdon   Fresno, CA00:00.0 288111  565 Velo Bella
DNSMichele Feikert   Davis, CA00:00.0 286411   Davis Bike Club
DNFCarol Hockridge   Granite Bay, CA00:00.0 281107  566 Davis Bike Club Race Team

Women - Junior - JR - 10-14

 Place Points NameCity, StateTime USAC #BibTeam
1Page Robertson   Oakland, CA00:00.0 291028  701 
2Aislinn KELLY   00:00.0  700 

Women - Junior - JR - 15-18

 Place Points NameCity, StateTime USAC #BibTeam
1Katherine Pollard   Los Angles, CA00:00.0 256535  750 Www.teammadcat.com

Report missing or incorrect license numbers

Volkswagen
SpyUSACDFShimanoSierra NevadaBonk Breaker
UCI USA Cycling is the official governing body for all disciplines of competitive cycling in the United States. The 501c3, membership-based organization aims both to achieve sustained success in international cycling competition and to grow competitive cycling in America while delivering an exceptional customer experience.
View Children's Online Privacy Protection Policy
US Olympic Committee